1518984000.86,16231,10.38,73254.3,-15.13,-47.93,-47.71,0,*6D
1518984002.07,16232,10.38,73256.8,-15.15,-47.51,-47.57,0,*62
1518984003.34,16233,10.38,73256.5,-15.15,-47.79,-47.79,0,*65
1518984004.6,16234,10.38,73256.3,-15.15,-47.79,-47.79,0,*62
1518984005.9,16235,10.31,73252.8,-15.13,-47.93,-47.71,0,*69
1518984007.17,16236,10.38,73250.3,-15.13,-47.45,-47.31,0,*65
1518984008.38,16237,10.38,73246.3,-15.15,-47.57,-47.57,0,*61
1518984009.59,16238,10.38,73248.8,-15.15,-47.57,-47.57,0,*6E
1518984010.85,16239,10.38,73252.3,-15.15,-47.71,-47.71,0,*6F
1518984012.08,16240,10.38,73248.0,-15.15,-47.71,-47.57,0,*65
1518984013.34,16241,10.38,73248.8,-15.15,-47.79,-47.71,0,*68
1518984014.59,16242,10.38,73248.3,-15.15,-47.31,-47.37,0,*65
1518984015.8,16243,10.38,73242.8,-15.15,-47.17,-47.17,0,*62
1518984017.04,16244,10.38,73248.0,-15.15,-47.57,-47.71,0,*61
1518984018.25,16245,10.38,73254.0,-15.15,-47.57,-47.57,0,*64
1518984019.5,16246,10.38,73258.0,-15.15,-46.89,-46.97,0,*68
1518984020.77,16247,10.38,73258.5,-15.15,-46.89,-46.89,0,*66
1518984022.02,16248,10.38,73252.8,-15.13,-47.31,-47.31,0,*6F
1518984023.31,16249,10.38,73254.0,-15.13,-47.45,-47.45,0,*6E
1518984024.62,16250,10.38,73256.0,-15.13,-47.45,-47.45,0,*66
1518984025.83,16251,10.38,73258.0,-15.15,-47.51,-47.51,0,*61
1518984027.06,16252,10.38,73262.0,-15.13,-47.51,-47.65,0,*63
1518984028.28,16253,10.31,73252.0,-15.15,-47.57,-47.57,0,*63
1518984029.49,16254,10.38,73256.8,-15.15,-47.57,-47.51,0,*62
1518984030.73,16255,10.38,73256.8,-15.13,-47.51,-47.51,0,*63
1518984031.97,16256,10.38,73260.8,-15.15,-47.51,-47.37,0,*66
1518984033.21,16257,10.38,73262.3,-15.15,-47.37,-47.57,0,*61
1518984034.42,16258,10.38,73260.0,-15.15,-47.57,-47.57,0,*68
1518984035.65,16259,10.38,73262.5,-15.17,-47.57,-47.57,0,*6B
1518984036.87,16260,10.38,73262.8,-15.15,-47.51,-47.51,0,*63
1518984038.08,16261,10.38,73258.3,-15.15,-47.51,-47.51,0,*62
1518984039.34,16262,10.38,73258.3,-15.17,-47.57,-47.71,0,*67
1518984040.61,16263,10.38,73258.0,-15.17,-47.79,-47.85,0,*61
1518984041.87,16264,10.38,73256.8,-15.17,-47.51,-47.37,0,*65
1518984043.11,16265,10.38,73256.3,-15.17,-47.51,-47.51,0,*64
1518984044.4,16266,10.38,73254.5,-15.17,-47.79,-47.79,0,*67
1518984045.66,16267,10.38,73254.5,-15.17,-47.71,-47.57,0,*62
1518984046.95,16268,10.38,73250.0,-15.17,-47.79,-47.79,0,*69
1518984048.21,16269,10.38,73252.3,-15.17,-47.57,-47.37,0,*6E
1518984049.48,16270,10.38,73258.8,-15.17,-47.51,-47.37,0,*60
1518984050.77,16271,10.38,73254.8,-15.17,-47.37,-47.37,0,*61
1518984052.03,16272,10.38,73258.0,-15.17,-47.17,-47.37,0,*60
1518984053.32,16273,10.38,73256.3,-15.17,-47.79,-47.71,0,*6B
1518984054.56,16274,10.31,73252.3,-15.17,-47.57,-47.57,0,*64
1518984055.83,16275,10.38,73260.3,-15.17,-47.31,-47.37,0,*63
1518984057.04,16276,10.38,73258.0,-15.15,-47.51,-47.51,0,*64
1518984058.25,16277,10.38,73260.3,-15.19,-47.57,-47.51,0,*6F
1518984059.48,16278,10.38,73262.8,-15.17,-47.51,-47.57,0,*6E
1518984060.77,16279,10.38,73262.5,-15.17,-47.71,-47.71,0,*69
1518984062.0,16280,10.38,73266.0,-15.17,-47.51,-47.57,0,*69
1518984063.27,16281,10.38,73260.5,-15.17,-47.37,-47.51,0,*6E
1518984064.51,16282,10.38,73262.0,-15.19,-47.45,-47.57,0,*60
1518984065.75,16283,10.38,73262.0,-15.17,-46.97,-46.97,0,*6C
1518984067.0,16284,10.38,73264.3,-15.17,-47.31,-47.51,0,*6D
1518984068.24,16285,10.38,73264.3,-15.19,-47.45,-47.57,0,*67
1518984069.48,16286,10.38,73266.8,-15.15,-47.31,-47.37,0,*6D
1518984070.72,16287,10.38,73266.0,-15.19,-46.97,-47.03,0,*6A
1518984071.97,16288,10.31,73256.8,-15.17,-46.97,-46.97,0,*67
1518984073.26,16289,10.38,73262.0,-15.17,-46.89,-46.89,0,*66
1518984074.47,16290,10.38,73260.5,-15.15,-47.17,-47.17,0,*6C
1518984075.69,16291,10.38,73258.0,-15.15,-47.17,-47.31,0,*69
1518984076.92,16292,10.31,73254.3,-15.17,-47.57,-47.51,0,*6A
1518984078.19,16293,10.38,73252.0,-15.17,-47.37,-47.51,0,*6D
1518984079.48,16294,10.38,73258.8,-15.17,-47.37,-47.37,0,*6A
1518984080.69,16295,10.38,73258.3,-15.19,-47.51,-47.57,0,*63
1518984081.96,16296,10.38,73262.0,-15.17,-47.31,-47.37,0,*6E
1518984083.22,16297,10.38,73252.3,-15.17,-47.57,-47.71,0,*6D
1518984084.46,16298,10.38,73254.0,-15.17,-47.51,-47.51,0,*66
1518984085.67,16299,10.38,73250.5,-15.15,-47.51,-47.51,0,*65
1518984086.91,16300,10.38,73246.0,-15.17,-47.31,-47.09,0,*6D
1518984088.21,16301,10.38,73252.3,-15.17,-47.37,-47.37,0,*67
1518984089.42,16302,10.38,73256.0,-15.15,-47.51,-47.51,0,*66
1518984090.66,16303,10.38,73250.8,-15.17,-47.09,-47.17,0,*6A
1518984091.92,16304,10.38,73250.8,-15.17,-47.17,-47.37,0,*60
1518984093.18,16305,10.38,73252.0,-15.17,-47.37,-47.57,0,*65
1518984094.47,16306,10.38,73252.0,-15.17,-47.79,-47.71,0,*68
1518984095.73,16307,10.38,73258.3,-15.17,-47.71,-47.57,0,*65
1518984096.97,16308,10.38,73256.8,-15.17,-47.09,-47.09,0,*6E
1518984098.21,16309,10.38,73260.0,-15.17,-47.31,-47.31,0,*6F
1518984099.46,16310,10.31,73258.8,-15.15,-47.37,-47.51,0,*65
1518984100.72,16311,10.38,73258.5,-15.17,-47.51,-47.37,0,*66
1518984101.98,16312,10.38,73262.5,-15.17,-47.37,-47.51,0,*65
1518984103.23,16313,10.38,73266.3,-15.17,-47.31,-47.31,0,*64
1518984104.48,16314,10.31,73260.3,-15.15,-46.89,-46.97,0,*6E
1518984105.75,16315,10.38,73266.8,-15.15,-46.89,-46.89,0,*60
1518984106.99,16316,10.38,73266.0,-15.15,-46.97,-46.89,0,*6C
1518984108.21,16317,10.38,73264.8,-15.15,-47.09,-47.09,0,*62
1518984109.45,16318,10.31,73262.8,-15.15,-46.97,-46.89,0,*62
1518984110.73,16319,10.31,73262.0,-15.15,-46.89,-46.89,0,*6C
1518984111.96,16320,10.38,73264.0,-15.15,-46.75,-46.69,0,*6B
1518984113.18,16321,10.38,73264.0,-15.15,-46.75,-46.75,0,*67
1518984114.39,16322,10.31,73262.3,-15.15,-46.75,-46.75,0,*64
1518984115.69,16323,10.38,73262.3,-15.13,-46.89,-46.89,0,*63
1518984116.93,16324,10.38,73260.5,-15.15,-46.75,-46.89,0,*61
1518984118.22,16325,10.38,73262.8,-15.13,-46.69,-46.69,0,*65
1518984119.51,16326,10.38,73260.8,-15.13,-46.89,-47.03,0,*65
1518984120.73,16327,10.38,73258.3,-15.15,-47.09,-47.09,0,*61
1518984122.02,16328,10.38,73262.5,-15.13,-47.45,-47.45,0,*68
1518984123.26,16329,10.38,73258.3,-15.13,-47.51,-47.65,0,*6E
1518984124.5,16330,10.31,73256.5,-15.13,-47.65,-47.51,0,*66
1518984125.71,16331,10.31,73254.3,-15.15,-47.51,-47.51,0,*66
1518984127.01,16332,10.31,73254.8,-15.13,-47.45,-47.45,0,*63
1518984128.28,16333,10.31,73252.5,-15.13,-47.23,-47.09,0,*6A
1518984129.52,16334,10.31,73250.3,-15.13,-47.31,-47.51,0,*63
1518984130.73,16335,10.31,73246.8,-15.15,-47.57,-47.57,0,*62
1518984131.97,16336,10.38,73252.0,-15.13,-47.51,-47.51,0,*67
1518984133.25,16337,10.31,73248.3,-15.13,-47.31,-47.45,0,*65
1518984134.48,16338,10.31,73248.0,-15.13,-47.65,-47.65,0,*69
1518984135.77,16339,10.38,73250.0,-15.13,-47.79,-47.71,0,*60
1518984136.99,16340,10.31,73244.3,-15.15,-47.09,-47.09,0,*60
1518984138.29,16341,10.38,73248.8,-15.13,-47.45,-47.45,0,*67
1518984139.56,16342,10.31,73244.8,-15.13,-47.51,-47.45,0,*61
1518984140.79,16343,10.31,73246.8,-15.13,-47.51,-47.51,0,*65
1518984142.04,16344,10.38,73250.0,-15.13,-47.31,-47.51,0,*64
1518984143.28,16345,10.31,73244.0,-15.15,-47.31,-47.37,0,*63
1518984144.53,16346,10.31,73244.8,-15.13,-47.51,-47.31,0,*66
1518984145.83,16347,10.38,73246.8,-15.13,-47.45,-47.45,0,*61
1518984147.07,16348,10.31,73248.8,-15.15,-47.71,-47.85,0,*63
1518984148.33,16349,10.31,73254.0,-15.15,-47.37,-47.37,0,*69
1518984149.58,16350,10.31,73254.3,-15.15,-46.89,-46.75,0,*62
1518984150.8,16351,10.38,73252.5,-15.15,-47.31,-47.31,0,*60
1518984152.07,16352,10.31,73248.8,-15.15,-47.37,-47.37,0,*63
1518984153.28,16353,10.38,73244.5,-15.15,-47.57,-47.57,0,*62
1518984154.52,16354,10.38,73244.5,-15.13,-47.51,-47.51,0,*63
1518984155.73,16355,10.38,73244.0,-15.15,-47.51,-47.51,0,*64
1518984156.97,16356,10.38,73248.8,-15.15,-47.57,-47.71,0,*63
1518984158.18,16357,10.38,73250.3,-15.15,-47.57,-47.57,0,*66
1518984159.45,16358,10.38,73250.3,-15.15,-47.79,-47.71,0,*61
1518984160.71,16359,10.31,73250.8,-15.15,-47.79,-47.71,0,*60
1518984161.92,16360,10.31,73252.0,-15.15,-47.51,-47.51,0,*62
1518984163.13,16361,10.38,73254.3,-15.15,-47.51,-47.57,0,*65
1518984164.38,16362,10.38,73252.8,-15.15,-46.89,-46.97,0,*6F
1518984165.59,16363,10.38,73250.3,-15.15,-47.57,-47.51,0,*67
1518984166.8,16364,10.38,73250.0,-15.15,-47.57,-47.57,0,*66
1518984168.07,16365,10.31,73250.8,-15.15,-47.71,-47.79,0,*6F
1518984169.33,16366,10.38,73252.5,-15.17,-47.37,-47.51,0,*66
1518984170.58,16367,10.38,73256.3,-15.15,-47.37,-47.51,0,*65
1518984171.84,16368,10.38,73248.0,-15.15,-47.79,-47.79,0,*6A
1518984173.08,16369,10.38,73250.8,-15.15,-47.57,-47.71,0,*6F
1518984174.31,16370,10.31,73250.8,-15.15,-47.71,-47.57,0,*67
1518984175.61,16371,10.38,73256.0,-15.17,-47.79,-47.79,0,*60
1518984176.87,16372,10.31,73256.5,-15.17,-47.79,-47.57,0,*6F
1518984178.11,16373,10.31,73250.8,-15.17,-47.09,-47.17,0,*6D
1518984179.4,16374,10.38,73256.5,-15.17,-47.37,-47.37,0,*65
1518984180.63,16375,10.38,73262.5,-15.17,-47.57,-47.57,0,*64
1518984181.87,16376,10.38,73256.8,-15.19,-47.79,-47.65,0,*64
1518984183.11,16377,10.38,73256.8,-15.17,-47.57,-47.57,0,*66
1518984184.38,16378,10.31,73256.8,-15.19,-47.79,-47.79,0,*67
1518984185.66,16379,10.38,73262.8,-15.17,-47.71,-47.71,0,*68
1518984186.9,16380,10.31,73260.3,-15.19,-47.79,-47.65,0,*6D
1518984188.14,16381,10.31,73258.5,-15.17,-47.31,-47.51,0,*69
1518984189.38,16382,10.31,73262.8,-15.17,-47.31,-47.51,0,*6A
1518984190.63,16383,10.31,73258.3,-15.17,-47.31,-47.31,0,*6D
1518984191.9,16384,10.31,73254.3,-15.19,-47.45,-47.45,0,*64
1518984193.11,16385,10.31,73254.5,-15.19,-47.65,-47.65,0,*65
1518984194.34,16386,10.31,73248.8,-15.17,-47.57,-47.57,0,*68
1518984195.59,16387,10.31,73250.8,-15.17,-47.31,-47.51,0,*6F
1518984196.8,16388,10.38,73250.0,-15.19,-47.57,-47.57,0,*68
1518984198.06,16389,10.31,73256.3,-15.17,-47.37,-47.51,0,*67
1518984199.27,16390,10.38,73260.5,-15.19,-47.65,-47.57,0,*60
1518984200.51,16391,10.31,73256.8,-15.19,-47.65,-47.79,0,*6D
1518984201.72,16392,10.31,73256.0,-15.19,-47.57,-47.65,0,*62
1518984202.98,16393,10.31,73254.5,-15.17,-47.17,-47.37,0,*6E
1518984204.25,16394,10.31,73256.5,-15.17,-47.09,-47.37,0,*66
1518984205.49,16395,10.31,73260.0,-15.19,-47.45,-47.57,0,*67
1518984206.7,16396,10.38,73260.0,-15.19,-47.57,-47.65,0,*66
1518984207.91,16397,10.31,73258.3,-15.19,-47.57,-47.57,0,*66
1518984209.15,16398,10.31,73252.3,-15.17,-47.57,-47.51,0,*61
1518984210.42,16399,10.38,73256.8,-15.19,-47.79,-47.79,0,*68
1518984211.68,16400,10.31,73254.5,-15.17,-47.51,-47.71,0,*63
1518984212.89,16401,10.38,73258.5,-15.19,-47.57,-47.57,0,*6E
1518984214.18,16402,10.31,73262.0,-15.17,-47.79,-47.71,0,*6B
1518984215.42,16403,10.31,73262.5,-15.19,-47.93,-47.85,0,*6B
1518984216.63,16404,10.31,73260.0,-15.19,-47.57,-47.65,0,*6A
1518984217.9,16405,10.38,73266.3,-15.17,-47.31,-47.37,0,*62
1518984219.17,16406,10.38,73264.5,-15.17,-46.89,-46.97,0,*68
1518984220.38,16407,10.31,73266.5,-15.19,-47.17,-47.17,0,*68
1518984221.6,16408,10.31,73266.8,-15.19,-46.75,-46.83,0,*6E
1518984222.83,16409,10.31,73266.8,-15.17,-47.17,-47.17,0,*68
1518984224.08,16410,10.31,73260.3,-15.17,-47.31,-47.31,0,*60
1518984225.32,16411,10.31,73264.0,-15.19,-47.51,-47.37,0,*6F
1518984226.56,16412,10.31,73260.3,-15.17,-47.31,-47.31,0,*62
1518984227.8,16413,10.38,73264.3,-15.17,-47.09,-47.17,0,*6C
1518984229.04,16414,10.31,73260.3,-15.17,-47.51,-47.51,0,*64
1518984230.3,16415,10.31,73256.3,-15.17,-47.37,-47.51,0,*65
1518984231.54,16416,10.31,73264.5,-15.17,-47.51,-47.51,0,*66
1518984232.8,16417,10.31,73266.0,-15.17,-47.57,-47.71,0,*63
1518984234.04,16418,10.31,73264.3,-15.17,-47.51,-47.57,0,*6E
1518984235.27,16419,10.38,73270.0,-15.17,-47.57,-47.57,0,*69
1518984236.54,16420,10.31,73260.8,-15.19,-47.45,-47.45,0,*6D
1518984237.75,16421,10.31,73266.5,-15.19,-47.65,-47.65,0,*6C
1518984238.96,16422,10.31,73266.0,-15.19,-47.65,-47.57,0,*6E
1518984240.2,16423,10.31,73268.8,-15.19,-47.79,-47.85,0,*6D
1518984241.47,16424,10.38,73270.8,-15.17,-47.31,-47.37,0,*61
1518984242.71,16425,10.31,73268.8,-15.19,-47.45,-47.57,0,*6B
1518984243.93,16426,10.31,73264.8,-15.19,-47.57,-47.57,0,*6B
1518984245.16,16427,10.31,73268.3,-15.19,-47.03,-47.17,0,*6F
1518984246.43,16428,10.31,73268.8,-15.19,-47.37,-47.45,0,*60
1518984247.67,16429,10.31,73270.0,-15.17,-47.09,-47.09,0,*6A
1518984248.89,16430,10.31,73268.3,-15.19,-46.97,-46.97,0,*6C
1518984250.19,16431,10.31,73268.0,-15.17,-46.89,-46.89,0,*63
1518984251.43,16432,10.31,73270.3,-15.17,-46.97,-46.97,0,*60
1518984252.68,16433,10.31,73266.0,-15.17,-46.97,-46.97,0,*61
1518984253.92,16434,10.38,73274.3,-15.17,-46.97,-46.97,0,*66
1518984255.16,16435,10.31,73268.5,-15.15,-47.37,-47.51,0,*65
1518984256.37,16436,10.38,73274.5,-15.15,-47.51,-47.51,0,*66
1518984257.61,16437,10.31,73268.8,-15.17,-47.09,-47.17,0,*6A
1518984258.85,16438,10.31,73274.3,-15.17,-47.09,-47.09,0,*6A
1518984260.15,16439,10.31,73274.3,-15.17,-46.89,-46.89,0,*6B
1518984261.36,16440,10.31,73274.3,-15.15,-46.97,-47.09,0,*61
1518984262.66,16441,10.31,73272.5,-15.13,-46.89,-47.03,0,*63
1518984263.91,16442,10.31,73274.3,-15.13,-46.83,-46.83,0,*63
1518984265.17,16443,10.31,73270.0,-15.15,-46.69,-46.69,0,*64
1518984266.41,16444,10.31,73270.5,-15.15,-46.83,-46.61,0,*6F
1518984267.7,16445,10.31,73274.0,-15.13,-46.61,-46.41,0,*66
1518984269.0,16446,10.31,73270.3,-15.13,-46.69,-46.69,0,*67
1518984270.29,16447,10.31,73272.0,-15.13,-46.61,-46.41,0,*64
1518984271.58,16448,10.31,73272.3,-15.13,-46.61,-46.69,0,*61
1518984272.88,16449,10.31,73268.0,-15.13,-46.89,-46.89,0,*68
1518984274.15,16450,10.38,73272.8,-15.09,-46.89,-47.09,0,*62
1518984275.41,16451,10.31,73268.8,-15.09,-47.03,-47.31,0,*6B
1518984276.69,16452,10.31,73266.5,-15.09,-46.83,-46.89,0,*63
1518984277.98,16453,10.31,73264.0,-15.09,-46.89,-47.03,0,*6B
1518984279.19,16454,10.31,73266.5,-15.07,-46.75,-46.83,0,*68
1518984280.41,16455,10.31,73266.5,-15.07,-46.75,-46.83,0,*69
1518984281.62,16456,10.31,73260.3,-15.07,-46.75,-46.55,0,*61
1518984282.91,16457,10.31,73264.0,-15.09,-46.61,-46.61,0,*6C
1518984284.17,16458,10.31,73260.3,-15.07,-46.61,-46.41,0,*6F
1518984285.39,16459,10.31,73262.8,-15.07,-46.55,-46.35,0,*6A
1518984286.62,16460,10.38,73266.8,-15.07,-46.41,-46.35,0,*65
1518984287.83,16461,10.31,73260.8,-15.07,-46.75,-46.75,0,*67
1518984289.05,16462,10.31,73266.5,-15.07,-46.83,-46.97,0,*61
1518984290.29,16463,10.31,73260.3,-15.07,-46.83,-47.03,0,*6C
1518984291.52,16464,10.31,73260.3,-15.07,-47.17,-47.23,0,*65
1518984292.79,16465,10.31,73260.5,-15.05,-46.97,-47.03,0,*6D
1518984294.03,16466,10.31,73262.3,-15.07,-47.57,-47.45,0,*63
1518984295.3,16467,10.31,73258.8,-15.09,-47.45,-47.51,0,*6A
1518984296.54,16468,10.38,73260.0,-15.07,-47.17,-47.23,0,*69
1518984297.8,16469,10.38,73258.8,-15.05,-47.03,-47.17,0,*68
1518984299.09,16470,10.38,73258.8,-15.05,-47.03,-47.03,0,*65
1518984300.32,16471,10.31,73252.0,-15.07,-47.23,-47.17,0,*61
1518984301.59,16472,10.38,73254.3,-15.07,-47.37,-47.37,0,*65
1518984302.8,16473,10.31,73250.8,-15.07,-47.57,-47.57,0,*64
1518984304.06,16474,10.31,73250.8,-15.07,-47.37,-47.45,0,*66
1518984305.33,16475,10.31,73246.0,-15.07,-47.45,-47.37,0,*67
1518984306.59,16476,10.31,73250.5,-15.07,-47.23,-47.23,0,*61
1518984307.83,16477,10.31,73250.0,-15.07,-47.23,-47.17,0,*67
1518984309.13,16478,10.31,73252.5,-15.09,-46.89,-46.89,0,*61
1518984310.35,16479,10.31,73248.3,-15.07,-46.97,-46.83,0,*6B
1518984311.57,16480,10.31,73248.0,-15.07,-46.83,-46.97,0,*6D
1518984312.8,16481,10.31,73246.3,-15.07,-47.03,-46.97,0,*65
1518984314.02,16482,10.31,73244.8,-15.07,-46.83,-47.17,0,*66
1518984315.28,16483,10.31,73244.5,-15.09,-47.09,-47.03,0,*6F
1518984316.52,16484,10.31,73246.0,-15.03,-46.97,-47.03,0,*64
1518984317.77,16485,10.31,73240.0,-15.05,-46.83,-46.83,0,*6F
1518984319.02,16486,10.31,73240.3,-15.05,-46.75,-46.83,0,*65
1518984320.23,16487,10.31,73242.3,-15.03,-46.75,-46.75,0,*6B
1518984321.5,16488,10.31,73244.0,-15.05,-46.61,-46.83,0,*6E
1518984322.79,16489,10.31,73244.0,-15.05,-46.61,-46.61,0,*63
1518984324.05,16490,10.31,73240.8,-15.03,-46.61,-46.61,0,*6D
1518984325.3,16491,10.31,73242.3,-15.03,-46.35,-46.27,0,*6F
1518984326.52,16492,10.31,73240.5,-15.03,-46.83,-46.75,0,*66
1518984327.78,16493,10.31,73240.8,-15.03,-47.03,-47.23,0,*6C
1518984329.0,16494,10.31,73240.0,-15.03,-46.83,-46.75,0,*60
1518984330.23,16495,10.31,73238.8,-15.03,-46.97,-46.83,0,*6D
1518984331.45,16496,10.31,73236.0,-15.03,-46.75,-46.83,0,*62
1518984332.68,16497,10.31,73238.5,-15.01,-47.09,-47.17,0,*67
1518984333.92,16498,10.31,73236.0,-15.01,-47.09,-47.09,0,*67
1518984335.15,16499,10.31,73240.3,-15.01,-47.17,-47.17,0,*66
1518984336.39,16500,10.31,73238.3,-15.01,-47.09,-47.17,0,*68
1518984337.66,16501,10.31,73238.8,-15.01,-47.37,-47.31,0,*60
1518984338.9,16502,10.31,73240.8,-15.01,-47.17,-47.09,0,*6A
1518984340.13,16503,10.31,73238.5,-15.01,-47.09,-47.09,0,*64
1518984341.37,16504,10.31,73236.0,-15.01,-47.17,-47.17,0,*63
1518984342.61,16505,10.31,73240.0,-15.01,-47.31,-47.31,0,*62
1518984343.85,16506,10.31,73238.0,-15.01,-47.51,-47.51,0,*61
1518984345.08,16507,10.31,73242.5,-15.01,-47.57,-47.51,0,*66
1518984346.34,16508,10.31,73242.3,-15.05,-47.71,-47.65,0,*6E
1518984347.61,16509,10.31,73242.8,-15.05,-47.65,-47.45,0,*68
1518984348.88,16510,10.31,73244.0,-15.03,-47.37,-47.45,0,*61
1518984350.15,16511,10.31,73238.8,-15.03,-47.37,-47.37,0,*65
1518984351.44,16512,10.31,73238.8,-15.05,-47.37,-47.37,0,*60
1518984352.71,16513,10.31,73238.5,-15.03,-47.45,-47.45,0,*67
1518984353.95,16514,10.31,73238.8,-15.05,-47.65,-47.57,0,*67
1518984355.22,16515,10.31,73240.3,-15.03,-47.45,-47.45,0,*61
1518984356.52,16516,10.31,73238.0,-15.05,-47.37,-47.37,0,*64
1518984357.79,16517,10.31,73236.0,-15.03,-47.45,-47.45,0,*63
1518984359.0,16518,10.31,73238.8,-15.03,-47.65,-47.65,0,*6C
1518984360.2,16519,10.31,73244.3,-15.03,-47.65,-47.57,0,*6C
1518984361.44,16520,10.31,73242.3,-15.05,-47.65,-47.65,0,*61
1518984362.7,16521,10.31,73236.5,-15.05,-47.65,-47.45,0,*62
1518984364.0,16522,10.31,73238.8,-15.05,-47.45,-47.45,0,*63
1518984365.3,16523,10.31,73236.8,-15.05,-47.45,-47.45,0,*62
1518984366.57,16524,10.31,73240.8,-15.05,-47.45,-47.57,0,*66
1518984367.81,16525,10.31,73244.3,-15.07,-47.17,-47.23,0,*61
1518984369.07,16526,10.31,73244.3,-15.07,-47.23,-47.37,0,*60
1518984370.33,16527,10.31,73242.5,-15.07,-47.23,-47.37,0,*61
1518984371.57,16528,10.31,73244.8,-15.07,-47.17,-47.23,0,*6C
1518984372.82,16529,10.31,73246.8,-15.05,-46.97,-46.97,0,*68
1518984374.08,16530,10.31,73242.8,-15.05,-47.23,-47.17,0,*67
1518984375.32,16531,10.31,73246.0,-15.05,-46.97,-47.17,0,*68
1518984376.58,16532,10.31,73250.3,-15.05,-47.17,-47.03,0,*67
1518984377.8,16533,10.31,73248.5,-15.03,-46.97,-46.97,0,*65
1518984379.07,16534,10.31,73244.8,-15.05,-46.83,-47.03,0,*6D
1518984380.36,16535,10.31,73246.8,-15.05,-47.23,-47.23,0,*65
1518984381.63,16536,10.31,73244.8,-15.05,-46.97,-47.03,0,*6A
1518984382.85,16537,10.31,73250.8,-15.03,-46.83,-46.97,0,*64
1518984384.11,16538,10.31,73248.5,-15.05,-46.83,-47.03,0,*61
1518984385.35,16539,10.31,73248.0,-15.03,-46.97,-47.03,0,*63
1518984386.65,16540,10.31,73248.5,-15.05,-47.03,-47.23,0,*65
1518984387.89,16541,10.31,73244.0,-15.05,-46.97,-46.97,0,*66
1518984389.14,16542,10.31,73248.5,-15.05,-46.83,-46.75,0,*6C
1518984390.36,16543,10.31,73250.0,-15.03,-46.75,-46.83,0,*6B
1518984391.57,16544,10.31,73254.8,-15.03,-46.75,-46.75,0,*65
1518984392.83,16545,10.31,73256.3,-15.05,-46.97,-46.83,0,*67
1518984394.04,16546,10.31,73250.0,-15.03,-46.83,-46.97,0,*62
1518984395.28,16547,10.31,73248.8,-15.01,-46.75,-47.09,0,*6E
1518984396.55,16548,10.31,73254.5,-15.03,-47.45,-47.37,0,*6C
1518984397.81,16549,10.31,73252.0,-15.03,-47.37,-47.37,0,*68
1518984399.08,16550,10.31,73252.8,-15.03,-47.37,-47.45,0,*65
1518984400.36,16551,10.31,73254.0,-15.03,-47.37,-47.45,0,*64
1518984401.59,16552,10.31,73254.0,-15.05,-47.65,-47.57,0,*65
1518984402.83,16553,10.31,73254.8,-15.05,-47.57,-47.57,0,*65
1518984404.07,16554,10.31,73256.5,-15.03,-47.17,-47.23,0,*63
1518984405.34,16555,10.31,73256.3,-15.03,-47.37,-47.23,0,*60
1518984406.64,16556,10.31,73256.3,-15.05,-47.37,-47.37,0,*60
1518984407.93,16557,10.31,73260.0,-15.05,-47.45,-47.45,0,*61
1518984409.17,16558,10.31,73262.5,-15.05,-47.57,-47.65,0,*6F
1518984410.46,16559,10.31,73256.3,-15.05,-47.23,-47.37,0,*6A
1518984411.73,16560,10.31,73258.3,-15.07,-47.37,-47.45,0,*62
1518984412.98,16561,10.31,73256.5,-15.05,-47.85,-47.85,0,*64
1518984414.22,16562,10.31,73256.8,-15.05,-47.57,-47.65,0,*66
1518984415.46,16563,10.31,73258.3,-15.05,-47.85,-47.85,0,*66
1518984416.7,16564,10.31,73254.8,-15.07,-47.85,-47.93,0,*64
1518984417.93,16565,10.31,73258.8,-15.07,-47.65,-47.71,0,*67
1518984419.16,16566,10.31,73258.0,-15.07,-47.71,-47.65,0,*64
1518984420.38,16567,10.31,73258.8,-15.07,-47.85,-47.85,0,*60
1518984421.59,16568,10.31,73254.8,-15.07,-47.57,-47.65,0,*6E
1518984422.81,16569,10.31,73256.0,-15.07,-47.71,-47.65,0,*6B
1518984424.05,16570,10.31,73254.5,-15.07,-47.57,-47.45,0,*65
1518984425.32,16571,10.31,73254.3,-15.09,-47.65,-47.71,0,*6C
1518984426.52,16572,10.31,73256.0,-15.07,-47.65,-47.65,0,*64
1518984427.78,16573,10.31,73254.3,-15.09,-47.79,-47.65,0,*66
1518984429.06,16574,10.31,73252.5,-15.09,-47.31,-47.45,0,*6F
1518984430.32,16575,10.31,73250.0,-15.09,-47.65,-47.71,0,*68
1518984431.58,16576,10.31,73254.5,-15.09,-47.93,-47.99,0,*64
1518984432.87,16577,10.31,73252.8,-15.09,-47.79,-47.93,0,*6B
1518984434.16,16578,10.31,73252.0,-15.09,-47.93,-47.93,0,*60
1518984435.45,16579,10.31,73252.0,-15.13,-47.79,-47.71,0,*62
1518984436.7,16580,10.31,73244.5,-15.15,-47.37,-47.51,0,*6A
1518984438.0,16581,10.31,73244.8,-15.13,-47.45,-47.45,0,*6D
1518984439.21,16582,10.31,73246.0,-15.15,-47.51,-47.51,0,*68
1518984440.47,16583,10.31,73246.3,-15.13,-47.65,-47.71,0,*6A
1518984441.76,16584,10.31,73248.0,-15.13,-47.71,-47.71,0,*68
1518984443.03,16585,10.31,73244.0,-15.13,-47.45,-47.51,0,*6C
1518984444.26,16586,10.31,73244.3,-15.13,-47.51,-47.51,0,*6A
1518984445.5,16587,10.31,73250.8,-15.13,-47.65,-47.51,0,*6C
1518984446.74,16588,10.31,73248.5,-15.15,-47.51,-47.45,0,*67
1518984447.98,16589,10.31,73248.0,-15.13,-47.65,-47.51,0,*62
1518984449.28,16590,10.31,73250.8,-15.13,-47.93,-47.79,0,*69
1518984450.57,16591,10.31,73250.0,-15.13,-47.79,-47.79,0,*6C
1518984451.81,16592,10.31,73250.0,-15.15,-47.57,-47.79,0,*65
1518984453.02,16593,10.31,73250.0,-15.15,-47.57,-47.57,0,*68
1518984454.24,16594,10.31,73252.5,-15.15,-47.57,-47.51,0,*69
1518984455.45,16595,10.31,73252.3,-15.15,-47.09,-47.17,0,*61
1518984456.66,16596,10.31,73242.8,-15.15,-47.51,-47.57,0,*6B
1518984457.9,16597,10.31,73238.8,-15.15,-47.57,-47.79,0,*60
1518984459.14,16598,10.31,73238.8,-15.15,-47.71,-47.85,0,*68
1518984460.37,16599,10.31,73240.0,-15.15,-47.71,-47.57,0,*66
1518984461.64,16600,10.31,73250.5,-15.15,-47.79,-47.79,0,*61
1518984462.88,16601,10.31,73244.5,-15.15,-47.37,-47.57,0,*66
1518984464.11,16602,10.31,73240.8,-15.15,-47.31,-47.31,0,*63
1518984465.38,16603,10.31,73236.8,-15.13,-47.31,-47.45,0,*67
1518984466.59,16604,10.31,73236.3,-15.15,-47.57,-47.57,0,*65
1518984467.85,16605,10.31,73228.8,-15.17,-47.71,-47.57,0,*62
1518984469.1,16606,10.31,73234.8,-15.17,-47.71,-47.57,0,*61
1518984470.34,16607,10.31,73232.0,-15.17,-47.09,-47.17,0,*6B
1518984471.58,16608,10.31,73228.8,-15.15,-47.31,-47.37,0,*6F
1518984472.83,16609,10.31,73236.3,-15.15,-47.37,-47.51,0,*68
1518984474.06,16610,10.31,73234.8,-15.15,-47.57,-47.71,0,*64
1518984475.32,16611,10.31,73236.8,-15.15,-47.71,-47.71,0,*61
1518984476.57,16612,10.31,73236.0,-15.15,-46.89,-46.97,0,*6D
1518984477.78,16613,10.31,73234.8,-15.15,-47.17,-47.51,0,*61
1518984478.99,16614,10.31,73234.0,-15.15,-47.57,-47.51,0,*62
1518984480.23,16615,10.31,73238.3,-15.15,-47.17,-47.37,0,*67
1518984481.44,16616,10.31,73232.0,-15.15,-47.09,-47.17,0,*69
1518984482.69,16617,10.31,73232.8,-15.15,-47.37,-47.51,0,*67
1518984483.96,16618,10.31,73232.5,-15.15,-47.37,-47.37,0,*68
1518984485.2,16619,10.31,73234.5,-15.15,-47.37,-47.51,0,*69
1518984486.43,16620,10.31,73230.8,-15.15,-47.57,-47.71,0,*67
1518984487.7,16621,10.31,73228.3,-15.13,-47.03,-47.09,0,*6E
1518984488.93,16622,10.31,73232.0,-15.13,-47.51,-47.65,0,*60
1518984490.19,16623,10.31,73228.3,-15.15,-47.71,-47.71,0,*60
1518984491.44,16624,10.31,73232.3,-15.15,-47.31,-47.37,0,*61